FW5317 Weather Reports


time (UTC)temp
C
wind
direction
speed
KPH
gust
KPH
rain 1hr
cm
rain 24hr
cm
rain mn
cm
humidity
%
barometer
mb
20260504050016 11 139 0.0 3.2 0.00 0.00 0.00 56 1004.8
20260504044516 11 144 3.2 4.8 0.00 0.00 0.00 55 1004.8
20260504043014 12 181 0.0 3.2 0.00 0.00 0.00 52 1005.0
20260504041514 11 181 0.0 3.2 0.00 0.00 0.00 56 1005.1
20260504040013 10 184 1.6 4.8 0.00 0.00 0.00 62 1005.3
20260504034523 12 184 0.0 0.0 0.00 0.00 0.00 55 1005.6
20260504033022 13 184 0.0 4.8 0.00 0.00 0.00 50 1005.8
20260504031512 12 277 0.0 1.6 0.00 0.00 0.00 51 1005.9
20260504030011 12 294 0.0 1.6 0.00 0.00 0.00 53 1005.9
20260504024533 13 294 0.0 0.0 0.00 0.00 0.00 52 1005.9
20260504023010 14 294 0.0 0.0 0.00 0.00 0.00 50 1005.7
20260504021510 14 294 0.0 1.6 0.00 0.00 0.00 47 1005.6
20260504020012 14 293 0.0 3.2 0.00 0.00 0.00 47 1005.5
20260504014509 15 292 0.0 3.2 0.00 0.00 0.00 48 1005.6
20260504013012 15 292 0.0 3.2 0.00 0.00 0.00 47 1005.5
20260504011508 16 287 1.6 6.4 0.00 0.00 0.00 46 1005.4
20260504010007 17 296 3.2 8.0 0.00 0.00 0.00 45 1005.4
20260504004510 19 296 4.8 16.1 0.00 0.00 0.00 40 1005.3
20260504003005 20 304 12.9 19.3 0.00 0.00 0.00 36 1005.2
20260504001504 21 304 16.1 22.5 0.00 0.00 0.00 34 1005.2
20260504000004 21 346 17.7 25.7 0.00 0.00 0.00 33 1005.1
20260503234502 22 298 14.5 25.7 0.00 0.00 0.00 37 1005.0
20260503233004 22 315 19.3 27.4 0.00 0.00 0.00 34 1005.0
20260503231501 22 319 16.1 27.4 0.00 0.00 0.00 36 1005.1
20260503230002 22 11 14.5 29.0 0.00 0.00 0.00 36 1005.0
20260503224600 22 313 14.5 29.0 0.00 0.00 0.00 36 1005.3
20260503223100 22 283 17.7 32.2 0.00 0.00 0.00 34 1005.1
20260503221559 22 297 24.1 33.8 0.00 0.00 0.00 33 1005.1
20260503214606 23 311 19.3 32.2 0.00 0.00 0.00 33 1005.0
20260503213057 23 296 11.3 35.4 0.00 0.00 0.00 28 1005.1
20260503211604 23 28 6.4 29.0 0.00 0.00 0.00 30 1005.0
20260503210055 24 9 14.5 30.6 0.00 0.00 0.00 29 1005.1
20260503204554 23 321 12.9 29.0 0.00 0.00 0.00 31 1005.1
20260503203050 24 321 16.1 32.2 0.00 0.00 0.00 31 1005.2
20260503201548 23 28 11.3 38.6 0.00 0.00 0.00 31 1005.5
20260503200048 23 310 20.9 32.2 0.00 0.00 0.00 31 1005.6
20260503194549 23 303 16.1 33.8 0.00 0.00 0.00 33 1005.5
20260503193054 23 336 11.3 37.0 0.00 0.00 0.00 33 1005.5
20260503191545 23 311 17.7 35.4 0.00 0.00 0.00 33 1005.5
20260503190052 23 281 22.5 41.8 0.00 0.00 0.00 35 1005.6
20260503184555 23 291 24.1 32.2 0.00 0.00 0.00 33 1005.6
20260503183041 23 281 27.4 43.5 0.00 0.00 0.00 35 1005.5
20260503181539 23 294 25.7 40.2 0.00 0.00 0.00 34 1005.5
20260503180038 22 5 25.7 38.6 0.00 0.00 0.00 34 1005.6
20260503174549 22 290 19.3 38.6 0.00 0.00 0.00 37 1005.8
20260503173032 22 272 22.5 37.0 0.00 0.00 0.00 38 1006.0
20260503171528 21 291 24.1 32.2 0.00 0.00 0.00 39 1006.2
20260503150104 16 252 17.7 33.8 0.00 0.00 0.00 50 1007.1
20260503081503 11 204 9.7 16.1 0.00 0.00 0.00 52 1012.1
20260503071556 11 204 11.3 17.7 0.00 0.00 0.00 54 1012.4